Flag for Canada Weather past 2 weeks in Rainy River, Ontario, Canada

Now
58 °F

Passing clouds.


Feels Like: 58 °F
Forecast: 51 / 61 °F
Wind: 3 mph from West

Location: Baudette International Airport

Current Time: Sep 19, 2014 at 11:51:50 PM

Latest Report: Sep 19, 2014 at 10:53 PM


Visibility: 10 mi

Pressure: 29.57 "Hg

Humidity: 93%

Dew point: 56 °F

Location of Rainy RiverLocation

Historic Weather in Rainy River — Graph

°F

Rainy River temperature yesterday

Maximum temperature yesterday: 64 °F (at 4:53 PM)
Minimum temperature yesterday: 35 °F (at 1:53 AM)
Average temperature yesterday: 50 °F

Past Weeks' High & Low Weather Summary

 TemperatureHumidityPressure
High79 °F (Sep 8, 4:53 PM)100% (Sep 18, 7:01 AM)30.46 "Hg (Sep 18, 7:01 AM)
Low31 °F (Sep 13, 4:53 AM)35% (Sep 15, 2:53 PM)29.51 "Hg (Sep 19, 8:53 PM)
Average53 °F75%30.04 "Hg
* Reported Sep 4 10:53 PM — Sep 19 10:53 PM, Rainy River, Weather by CustomWeather, © 2014

Note: Actual official high and low records may vary slightly from our data, if they occured in-between our weather recording intervals... More about our weather records

Advertising

Rainy River weather history for previous 24 hours

 ConditionsComfort  
Time TempWeatherWind HumidityBarometerVisibility
10:53 PM
Sep 19
58 °FPassing clouds.3 mph93%29.57 "Hg10 mi
9:53 PM61 °FRain. Fog.9 mph93%29.56 "Hg4 mi
8:53 PM63 °FFog.7 mph97%29.51 "Hg6 mi
8:00 PM64 °FPartly sunny.No wind94%29.54 "Hg8 mi
6:53 PM65 °FPartly sunny.No wind91%29.54 "Hg10 mi
5:53 PM68 °FScattered clouds.9 mph84%29.54 "Hg10 mi
5:03 PM68 °FScattered clouds.8 mph84%29.53 "Hg10 mi
3:53 PM67 °FOvercast.10 mph87%29.53 "Hg10 mi
2:53 PM66 °FLow clouds.12 mph90%29.52 "Hg10 mi
1:53 PM62 °FLight rain. Fog.12 mph96%29.54 "Hg6 mi
1:01 PM62 °FRain. Fog.10 mph93%29.56 "Hg3 mi
11:53 AM62 °FLight rain. More clouds than sun.16 mph86%29.55 "Hg10 mi
10:53 AM60 °FLight rain. More clouds than sun.9 mph90%29.57 "Hg10 mi
9:58 AM59 °FHeavy rain. Fog.8 mph93%29.57 "Hg1 mi
8:53 AM62 °FOvercast.12 mph80%29.59 "Hg10 mi
7:53 AM60 °FPartly cloudy.13 mph86%29.59 "Hg10 mi
6:53 AM59 °FLight rain. Mostly cloudy.9 mph90%29.64 "Hg8 mi
5:53 AM61 °FPassing clouds.13 mph78%29.64 "Hg10 mi
4:53 AM61 °FClear.14 mph75%29.64 "Hg10 mi
3:53 AM61 °FClear.15 mph75%29.65 "Hg10 mi
2:53 AM61 °FClear.14 mph75%29.69 "Hg10 mi
1:53 AM58 °FClear.13 mph84%29.72 "Hg10 mi
12:53 AM59 °FOvercast.14 mph81%29.76 "Hg10 mi
11:53 PM
Sep 18
59 °FPassing clouds.15 mph81%29.78 "Hg10 mi
Weather by CustomWeather, © 2014

See weather overviewHow to use our weather pages